Weather History for Slayton, MN

Change the Weather History Date:

Tuesday, September 3, 2013

  Actual Average (KOTG) Record (KOTG)
Temperature  
Mean Temperature 62 °F -  
Max Temperature 79 °F 75 °F 92 °F (1983)
Min Temperature 46 °F 55 °F 29 °F (1974)
Degree Days  
Heating Degree Days 2    
Growing Degree Days 12 (Base 50)    
Moisture  
Dew Point 57 °F    
Average Humidity 80    
Maximum Humidity 99    
Minimum Humidity 51    
Precipitation  
Precipitation 0.00 in - - ()
Sea Level Pressure  
Sea Level Pressure 30.08 in    
Wind  
Wind Speed 4 mph (South)    
Max Wind Speed 10 mph    
Max Gust Speed -    
Visibility 10 miles    
Events      
Averages and records for this station are not official NWS values.
T = Trace of Precipitation, MM = Missing Value Source: NWS Daily Summary

Daily Weather History Graph

Daily Weather History Graph

Search for Another Location

Airport:

Trip Planner

Search our weather history database for the weather conditions in past years. The results will help you decide how hot, cold, wet, or windy it might be!

Date:

Astronomy

Sep. 03, 2013 Rise Set
Actual Time 6:48 AM CDT 7:54 PM CDT
Civil Twilight 6:19 AM CDT 8:24 PM CDT
Nautical Twilight 5:43 AM CDT 8:59 PM CDT
Astronomical Twilight 5:06 AM CDT 9:36 PM CDT
Moon 5:02 AM CDT (9/3) 6:43 PM CDT (9/3)
Length of Visible Light 14h 05m
Length of Day
13h 05m
Waning Crescent, 3% of the Moon is Illuminated
Sep 3
Waning Crescent
Sep 5
New
Sep 12
First Quarter
Sep 19
Full
Sep 26
Last Quarter

Hourly Weather History & Observations

Time (CDT) Temp. Dew Point Humidity Pressure Visibility Wind Dir Wind Speed Gust Speed Precip Events Conditions
12:13 AM 52.3 °F 50.4 °F 93% 30.09 in 10.0 mi Calm Calm - N/A   Clear
12:33 AM 52.9 °F 50.5 °F 92% 30.09 in 10.0 mi Calm Calm - N/A   Clear
12:53 AM 52.0 °F 50.9 °F 96% 30.09 in 10.0 mi Calm Calm - N/A   Clear
1:13 AM 51.3 °F 50.0 °F 95% 30.09 in 10.0 mi Calm Calm - N/A   Clear
1:33 AM 52.0 °F 51.1 °F 97% 30.09 in 10.0 mi Calm Calm - N/A   Clear
1:53 AM 51.3 °F 50.0 °F 95% 30.08 in 10.0 mi SSE 5.8 mph - N/A   Clear
2:13 AM 49.6 °F 48.7 °F 97% 30.08 in 10.0 mi SSE 4.6 mph - N/A   Clear
2:33 AM 50.7 °F 50.5 °F 99% 30.08 in 10.0 mi SSE 3.5 mph - N/A   Clear
2:53 AM 50.4 °F 50.0 °F 99% 30.08 in 10.0 mi South 5.8 mph - N/A   Clear
3:13 AM 50.2 °F 49.5 °F 97% 30.09 in 10.0 mi South 6.9 mph - N/A   Clear
3:33 AM 49.6 °F 49.1 °F 98% 30.09 in 10.0 mi South 5.8 mph - N/A   Clear
3:54 AM 49.1 °F 48.7 °F 99% 30.09 in 10.0 mi SSE 5.8 mph - N/A   Clear
4:12 AM 49.1 °F 48.7 °F 99% 30.09 in 10.0 mi South 4.6 mph - N/A   Clear
4:33 AM 47.8 °F 47.3 °F 98% 30.09 in 10.0 mi SSE 3.5 mph - N/A   Clear
4:53 AM 48.0 °F 47.5 °F 98% 30.10 in 10.0 mi South 4.6 mph - N/A   Clear
5:13 AM 49.3 °F 49.1 °F 99% 30.10 in 10.0 mi South 4.6 mph - N/A   Clear
5:33 AM 48.4 °F 48.2 °F 99% 30.10 in 10.0 mi South 5.8 mph - N/A   Clear
5:53 AM 47.3 °F 46.8 °F 98% 30.10 in 10.0 mi SSE 4.6 mph - N/A   Clear
6:13 AM 46.9 °F 46.8 °F 99% 30.10 in 10.0 mi SSE 5.8 mph - N/A   Clear
6:33 AM 46.6 °F 46.4 °F 99% 30.10 in 10.0 mi SSE 3.5 mph - N/A   Clear
6:53 AM 47.3 °F 47.1 °F 99% 30.11 in 10.0 mi South 3.5 mph - N/A   Clear
7:13 AM 46.9 °F 46.8 °F 99% 30.11 in 10.0 mi SSE 3.5 mph - N/A   Clear
7:33 AM 47.8 °F 47.7 °F 99% 30.11 in 10.0 mi South 3.5 mph - N/A   Clear
7:53 AM 50.4 °F 50.2 °F 99% 30.11 in 10.0 mi SSE 3.5 mph - N/A   Clear
8:13 AM 53.1 °F 52.2 °F 97% 30.11 in 10.0 mi SSE 3.5 mph - N/A   Clear
8:33 AM 57.0 °F 54.3 °F 91% 30.11 in 10.0 mi South 4.6 mph - N/A   Clear
8:53 AM 58.3 °F 54.9 °F 88% 30.10 in 10.0 mi South 3.5 mph - N/A   Clear
9:13 AM 60.1 °F 55.8 °F 86% 30.10 in 10.0 mi South 4.6 mph - N/A   Clear
9:32 AM 62.8 °F 56.7 °F 80% 30.11 in 10.0 mi South 5.8 mph - N/A   Clear
9:53 AM 64.8 °F 57.7 °F 78% 30.11 in 10.0 mi South 5.8 mph - N/A   Clear
10:13 AM 66.2 °F 56.7 °F 71% 30.11 in 10.0 mi SSW 8.1 mph - N/A   Clear
10:33 AM 67.6 °F 57.2 °F 69% 30.10 in 10.0 mi South 8.1 mph - N/A   Clear
10:53 AM 68.7 °F 56.5 °F 65% 30.10 in 10.0 mi SSW 8.1 mph - N/A   Clear
11:13 AM 70.2 °F 56.7 °F 62% 30.10 in 10.0 mi South 9.2 mph - N/A   Clear
11:33 AM 71.6 °F 56.7 °F 59% 30.10 in 10.0 mi South 9.2 mph - N/A   Clear
11:53 AM 72.5 °F 55.2 °F 54% 30.10 in 10.0 mi SSW 10.4 mph - N/A   Clear
12:13 PM 73.8 °F 55.0 °F 52% 30.09 in 10.0 mi SSW 8.1 mph - N/A   Clear
12:33 PM 74.7 °F 56.1 °F 52% 30.09 in 10.0 mi South 8.1 mph - N/A   Clear
12:53 PM 75.2 °F 55.8 °F 51% 30.09 in 10.0 mi SSW 4.6 mph - N/A   Clear
1:13 PM 75.7 °F 56.7 °F 51% 30.08 in 10.0 mi South 3.5 mph - N/A   Clear
1:33 PM 76.5 °F 57.6 °F 52% 30.07 in 10.0 mi South 6.9 mph - N/A   Clear
1:53 PM 77.5 °F 58.5 °F 52% 30.07 in 10.0 mi SSE 4.6 mph - N/A   Clear
2:13 PM 77.7 °F 58.1 °F 51% 30.07 in 10.0 mi South 3.5 mph - N/A   Clear
2:33 PM 77.5 °F 58.5 °F 52% 30.07 in 10.0 mi South 6.9 mph - N/A   Clear
2:52 PM 78.1 °F 59.7 °F 53% 30.06 in 10.0 mi South 6.9 mph - N/A   Clear
3:13 PM 78.1 °F 60.4 °F 54% 30.05 in 10.0 mi SSE 6.9 mph - N/A   Clear
3:33 PM 77.7 °F 60.6 °F 55% 30.05 in 10.0 mi SSE 5.8 mph - N/A   Clear
3:53 PM 79.3 °F 61.2 °F 54% 30.05 in 10.0 mi SSE 6.9 mph - N/A   Clear
4:13 PM 79.0 °F 61.5 °F 55% 30.05 in 10.0 mi South 5.8 mph - N/A   Clear
4:34 PM 79.7 °F 61.7 °F 54% 30.05 in 10.0 mi South 5.8 mph - N/A   Clear
4:53 PM 78.6 °F 61.3 °F 55% 30.05 in 10.0 mi South 6.9 mph - N/A   Clear
5:13 PM 78.3 °F 62.1 °F 57% 30.05 in 10.0 mi South 5.8 mph - N/A   Clear
5:33 PM 78.1 °F 62.1 °F 58% 30.04 in 10.0 mi South 6.9 mph - N/A   Clear
5:53 PM 77.4 °F 61.9 °F 59% 30.05 in 10.0 mi SSW 6.9 mph - N/A   Clear
6:13 PM 76.3 °F 62.8 °F 63% 30.05 in 10.0 mi South 4.6 mph - N/A   Clear
6:33 PM 76.3 °F 63.7 °F 65% 30.05 in 10.0 mi South 3.5 mph - N/A   Clear
6:53 PM 74.5 °F 64.9 °F 72% 30.05 in 10.0 mi Calm Calm - N/A   Clear
7:13 PM 73.8 °F 66.2 °F 77% 30.04 in 10.0 mi SSE 3.5 mph - N/A   Clear
7:33 PM 73.0 °F 65.7 °F 78% 30.04 in 10.0 mi South 4.6 mph - N/A   Clear
7:53 PM 71.6 °F 66.2 °F 83% 30.04 in 10.0 mi South 3.5 mph - N/A   Clear
8:12 PM 69.3 °F 65.7 °F 88% 30.05 in 10.0 mi SSE 4.6 mph - N/A   Clear
8:33 PM 68.0 °F 65.3 °F 91% 30.05 in 10.0 mi SSE 5.8 mph - N/A   Clear
8:53 PM 68.0 °F 65.5 °F 92% 30.05 in 10.0 mi South 5.8 mph - N/A   Clear
9:13 PM 67.1 °F 64.6 °F 92% 30.05 in 10.0 mi South 3.5 mph - N/A   Clear
9:33 PM 65.3 °F 64.0 °F 96% 30.05 in 10.0 mi Calm Calm - N/A   Clear
9:53 PM 65.8 °F 64.4 °F 95% 30.05 in 10.0 mi Calm Calm - N/A   Clear
10:13 PM 65.5 °F 64.4 °F 96% 30.06 in 10.0 mi South 3.5 mph - N/A   Clear
10:33 PM 63.5 °F 62.8 °F 97% 30.06 in 10.0 mi Calm Calm - N/A   Clear
10:53 PM 64.2 °F 63.5 °F 98% 30.07 in 10.0 mi SE 4.6 mph - N/A   Clear
11:13 PM 63.9 °F 63.1 °F 97% 30.07 in 10.0 mi SE 5.8 mph - N/A   Clear
11:32 PM 63.7 °F 63.1 °F 98% 30.07 in 7.0 mi SE 5.8 mph - N/A   Clear
11:53 PM 62.6 °F 62.1 °F 98% 30.07 in 7.0 mi SSE 5.8 mph - N/A   Clear